Simultaneous Nadir Overpasses (SNOs) Predictions

Prediction of SNOs between LANDSAT-8 and METOP-A Satellite Orbit:

Table of predicted SNOs for the next 14.0 days since TLE Epoch: 7/31/2021
Index Date (LANDSAT-8) Time (LANDSAT-8) Lat,Lon (LANDSAT-8) SZA (LANDSAT-8 ) Date (METOP-A) Time (METOP-A) Lat,Lon (METOP-A) SZA (METOP-A ) Distance(km) Time Diff (sec)
1 07/31/2021 23:04:30 81.35,-122.13 65.67 07/31/2021 23:03:17 81.36,-122.21 65.64 1.48 73
2 07/31/2021 23:53:57 -81.35, 45.44 114.33 07/31/2021 23:53:57 -81.35, 45.28 114.34 2.62 0
3 08/01/2021 00:43:23 81.35,-146.81 65.70 08/01/2021 00:44:37 81.34,-146.95 65.70 2.90 74
4 08/03/2021 18:38:46 81.36, -55.52 66.43 08/03/2021 18:37:37 81.35, -55.49 66.39 1.67 69
5 08/03/2021 19:28:14 -81.34, 111.69 113.63 08/03/2021 19:28:18 -81.35, 111.64 113.62 1.79 4
6 08/06/2021 14:13:03 81.35, 10.67 67.16 08/06/2021 14:11:58 81.35, 10.82 67.15 2.47 65
7 08/06/2021 15:02:30 -81.35, 178.30 112.84 08/06/2021 15:02:38 -81.34, 178.37 112.83 1.47 8
8 08/09/2021 09:47:18 81.35, 77.22 67.98 08/09/2021 09:46:18 81.35, 77.12 67.94 1.82 60
9 08/09/2021 10:36:45 -81.35,-115.12 112.01 08/09/2021 10:36:58 -81.34,-115.30 112.03 3.43 13
10 08/12/2021 05:21:35 81.34, 143.36 68.78 08/12/2021 05:20:39 81.35, 143.40 68.77 1.57 56



Historial Predications of SNOs between LANDSAT-8 and METOP-A
